Time,TemperatureF,DewpointF,PressureIn,WindDirection,WindDirectionDegrees,WindSpeedMPH,WindSpeedGustMPH,Humidity,HourlyPrecipIn,Conditions,Clouds,dailyrainin,SoftwareType,DateUTC
2013-09-08 00:00:00,73.2,68.4,29.91,North,32767,0.0,0.0,85,0.00,,,0.01,Wunderground v.1.13,2013-09-08 04:00:00,
2013-09-08 00:01:00,73.0,68.2,29.91,North,32767,0.0,0.0,85,0.00,,,0.00,Wunderground v.1.13,2013-09-08 04:01:00,
2013-09-08 00:02:00,73.0,68.2,29.91,North,32767,0.0,0.0,85,0.00,,,0.00,Wunderground v.1.13,2013-09-08 04:02:00,
2013-09-08 00:03:00,73.2,68.4,29.91,North,-999,0.0,0.0,85,0.00,,,-99.99,WeatherLink 6.0.2,2013-09-08 04:03:00,
2013-09-08 00:08:00,73.0,68.2,29.91,North,32767,0.0,0.0,85,0.00,,,0.00,Wunderground v.1.13,2013-09-08 04:08:00,
2013-09-08 00:13:00,73.0,68.6,29.91,North,32767,0.0,0.0,86,0.00,,,0.00,Wunderground v.1.13,2013-09-08 04:13:00,
2013-09-08 00:18:00,73.0,68.2,29.91,North,32767,0.0,0.0,85,0.00,,,0.00,Wunderground v.1.13,2013-09-08 04:18:00,
2013-09-08 00:24:00,72.8,68.4,29.91,North,32767,0.0,0.0,86,0.00,,,0.00,Wunderground v.1.13,2013-09-08 04:24:00,
2013-09-08 00:29:00,72.7,68.3,29.91,North,32767,0.0,0.0,86,0.00,,,0.00,Wunderground v.1.13,2013-09-08 04:29:00,
2013-09-08 00:35:00,72.5,68.1,29.91,North,32767,0.0,0.0,86,0.00,,,0.00,Wunderground v.1.13,2013-09-08 04:35:00,
2013-09-08 00:41:00,72.3,67.9,29.91,North,32767,0.0,0.0,86,0.00,,,0.00,Wunderground v.1.13,2013-09-08 04:41:00,
2013-09-08 00:47:00,72.1,67.7,29.90,North,32767,0.0,0.0,86,0.00,,,0.00,Wunderground v.1.13,2013-09-08 04:47:00,
2013-09-08 00:52:00,72.1,67.7,29.90,North,32767,0.0,0.0,86,0.00,,,0.00,Wunderground v.1.13,2013-09-08 04:52:00,
2013-09-08 00:58:00,72.0,67.6,29.90,North,-999,0.0,0.0,86,0.00,,,-99.99,WeatherLink 6.0.2,2013-09-08 04:58:00,
2013-09-08 01:04:00,71.8,67.4,29.90,North,32767,0.0,0.0,86,0.00,,,0.00,Wunderground v.1.13,2013-09-08 05:04:00,
2013-09-08 01:09:00,71.8,67.4,29.90,North,32767,0.0,0.0,86,0.00,,,0.00,Wunderground v.1.13,2013-09-08 05:09:00,
2013-09-08 01:15:00,71.6,67.2,29.90,North,32767,0.0,0.0,86,0.00,,,0.00,Wunderground v.1.13,2013-09-08 05:15:00,
2013-09-08 01:20:00,71.6,67.5,29.90,North,32767,0.0,0.0,87,0.00,,,0.00,Wunderground v.1.13,2013-09-08 05:20:00,
2013-09-08 01:26:00,71.6,67.5,29.90,North,32767,0.0,0.0,87,0.00,,,0.00,Wunderground v.1.13,2013-09-08 05:26:00,
2013-09-08 01:32:00,71.5,67.4,29.90,North,32767,0.0,0.0,87,0.00,,,0.00,Wunderground v.1.13,2013-09-08 05:32:00,
2013-09-08 01:37:00,71.3,67.2,29.90,North,32767,0.0,0.0,87,0.00,,,0.00,Wunderground v.1.13,2013-09-08 05:37:00,
2013-09-08 01:43:00,71.3,67.2,29.90,North,-999,0.0,0.0,87,0.00,,,-99.99,WeatherLink 6.0.2,2013-09-08 05:43:00,
2013-09-08 01:48:00,71.1,67.0,29.90,North,-999,0.0,0.0,87,0.00,,,-99.99,WeatherLink 6.0.2,2013-09-08 05:48:00,
2013-09-08 01:53:00,70.9,66.8,29.90,North,32767,0.0,0.0,87,0.00,,,0.00,Wunderground v.1.13,2013-09-08 05:53:00,
2013-09-08 01:58:00,70.9,66.8,29.90,North,-999,0.0,0.0,87,0.00,,,-99.99,WeatherLink 6.0.2,2013-09-08 05:58:00,
2013-09-08 02:00:00,70.9,66.8,29.90,North,-999,0.0,0.0,87,0.00,,,-99.99,WeatherLink 6.0.2,2013-09-08 06:00:00,
2013-09-08 02:03:00,70.9,67.2,29.90,North,32767,0.0,0.0,88,0.00,,,0.00,Wunderground v.1.13,2013-09-08 06:03:00,
2013-09-08 02:08:00,70.8,66.7,29.90,North,32767,0.0,0.0,87,0.00,,,0.00,Wunderground v.1.13,2013-09-08 06:08:00,
2013-09-08 02:13:00,70.8,67.1,29.90,North,32767,0.0,0.0,88,0.00,,,0.00,Wunderground v.1.13,2013-09-08 06:13:00,
2013-09-08 02:18:00,70.6,66.9,29.89,North,32767,0.0,0.0,88,0.00,,,0.00,Wunderground v.1.13,2013-09-08 06:18:00,
2013-09-08 02:23:00,70.6,66.9,29.89,North,32767,0.0,0.0,88,0.00,,,0.00,Wunderground v.1.13,2013-09-08 06:23:00,
2013-09-08 02:28:00,70.4,66.7,29.89,North,32767,0.0,0.0,88,0.00,,,0.00,Wunderground v.1.13,2013-09-08 06:28:00,
2013-09-08 02:34:00,70.3,66.6,29.89,North,32767,0.0,0.0,88,0.00,,,0.00,Wunderground v.1.13,2013-09-08 06:34:00,
2013-09-08 02:39:00,70.3,66.6,29.89,North,32767,0.0,0.0,88,0.00,,,0.00,Wunderground v.1.13,2013-09-08 06:39:00,
2013-09-08 02:44:00,70.1,66.4,29.89,North,32767,0.0,0.0,88,0.00,,,0.00,Wunderground v.1.13,2013-09-08 06:44:00,
2013-09-08 02:49:00,70.1,66.4,29.89,North,32767,0.0,0.0,88,0.00,,,0.00,Wunderground v.1.13,2013-09-08 06:49:00,
2013-09-08 02:54:00,69.9,66.2,29.89,North,32767,0.0,0.0,88,0.00,,,0.00,Wunderground v.1.13,2013-09-08 06:54:00,
2013-09-08 02:59:00,69.8,66.1,29.89,North,32767,0.0,0.0,88,0.00,,,0.00,Wunderground v.1.13,2013-09-08 06:59:00,
2013-09-08 03:04:00,69.8,66.1,29.88,North,32767,0.0,0.0,88,0.00,,,0.00,Wunderground v.1.13,2013-09-08 07:04:00,
2013-09-08 03:09:00,69.6,65.9,29.88,North,32767,0.0,0.0,88,0.00,,,0.00,Wunderground v.1.13,2013-09-08 07:09:00,
2013-09-08 03:14:00,69.6,65.9,29.88,North,-999,0.0,0.0,88,0.00,,,-99.99,WeatherLink 6.0.2,2013-09-08 07:14:00,
2013-09-08 03:15:00,69.6,65.9,29.88,North,-999,0.0,0.0,88,0.00,,,-99.99,WeatherLink 6.0.2,2013-09-08 07:15:00,
2013-09-08 03:19:00,69.4,65.7,29.88,North,32767,0.0,0.0,88,0.00,,,0.00,Wunderground v.1.13,2013-09-08 07:19:00,
2013-09-08 03:20:00,69.4,65.7,29.88,North,-999,0.0,0.0,88,0.00,,,-99.99,WeatherLink 6.0.2,2013-09-08 07:20:00,
2013-09-08 03:24:00,69.4,65.7,29.88,North,32767,0.0,0.0,88,0.00,,,0.00,Wunderground v.1.13,2013-09-08 07:24:00,
2013-09-08 03:25:00,69.4,65.7,29.88,North,-999,0.0,0.0,88,0.00,,,-99.99,WeatherLink 6.0.2,2013-09-08 07:25:00,
2013-09-08 03:29:00,69.4,65.7,29.88,North,32767,0.0,0.0,88,0.00,,,0.00,Wunderground v.1.13,2013-09-08 07:29:00,
2013-09-08 03:30:00,69.3,65.6,29.88,North,-999,0.0,0.0,88,0.00,,,-99.99,WeatherLink 6.0.2,2013-09-08 07:30:00,
2013-09-08 03:35:00,69.3,65.6,29.88,North,32767,0.0,0.0,88,0.00,,,0.00,Wunderground v.1.13,2013-09-08 07:35:00,
2013-09-08 03:40:00,69.3,65.9,29.88,North,32767,0.0,0.0,89,0.00,,,0.00,Wunderground v.1.13,2013-09-08 07:40:00,
2013-09-08 03:45:00,69.1,65.4,29.88,North,32767,0.0,0.0,88,0.00,,,0.00,Wunderground v.1.13,2013-09-08 07:45:00,
2013-09-08 03:50:00,69.1,65.7,29.87,North,32767,0.0,0.0,89,0.00,,,0.00,Wunderground v.1.13,2013-09-08 07:50:00,
2013-09-08 03:55:00,69.1,65.7,29.87,North,32767,0.0,0.0,89,0.00,,,0.00,Wunderground v.1.13,2013-09-08 07:55:00,
2013-09-08 04:00:00,68.9,65.5,29.87,North,32767,0.0,0.0,89,0.00,,,0.00,Wunderground v.1.13,2013-09-08 08:00:00,
2013-09-08 04:05:00,68.9,65.5,29.87,North,32767,0.0,0.0,89,0.00,,,0.00,Wunderground v.1.13,2013-09-08 08:05:00,
2013-09-08 04:10:00,68.8,65.4,29.87,North,32767,0.0,0.0,89,0.00,,,0.00,Wunderground v.1.13,2013-09-08 08:10:00,
2013-09-08 04:15:00,68.8,65.4,29.87,North,32767,0.0,0.0,89,0.00,,,0.00,Wunderground v.1.13,2013-09-08 08:15:00,
2013-09-08 04:20:00,68.8,65.4,29.87,North,32767,0.0,0.0,89,0.00,,,0.00,Wunderground v.1.13,2013-09-08 08:20:00,
2013-09-08 04:25:00,68.6,65.2,29.87,North,32767,0.0,0.0,89,0.00,,,0.00,Wunderground v.1.13,2013-09-08 08:25:00,
2013-09-08 04:30:00,68.6,65.2,29.87,North,32767,0.0,0.0,89,0.00,,,0.00,Wunderground v.1.13,2013-09-08 08:30:00,
2013-09-08 04:35:00,68.4,65.0,29.87,North,32767,0.0,0.0,89,0.00,,,0.00,Wunderground v.1.13,2013-09-08 08:35:00,
2013-09-08 04:40:00,68.4,65.0,29.87,North,32767,0.0,0.0,89,0.00,,,0.00,Wunderground v.1.13,2013-09-08 08:40:00,
2013-09-08 04:45:00,68.4,65.0,29.86,North,32767,0.0,0.0,89,0.00,,,0.00,Wunderground v.1.13,2013-09-08 08:45:00,
2013-09-08 04:50:00,68.4,65.0,29.86,North,32767,0.0,0.0,89,0.00,,,0.00,Wunderground v.1.13,2013-09-08 08:50:00,
2013-09-08 04:55:00,68.4,65.0,29.86,North,32767,0.0,0.0,89,0.00,,,0.00,Wunderground v.1.13,2013-09-08 08:55:00,
2013-09-08 05:00:00,68.4,65.0,29.87,North,32767,0.0,0.0,89,0.00,,,0.00,Wunderground v.1.13,2013-09-08 09:00:00,
2013-09-08 05:05:00,68.4,65.0,29.87,North,32767,0.0,0.0,89,0.00,,,0.00,Wunderground v.1.13,2013-09-08 09:05:00,
2013-09-08 05:10:00,68.4,65.0,29.87,North,32767,0.0,0.0,89,0.00,,,0.00,Wunderground v.1.13,2013-09-08 09:10:00,
2013-09-08 05:15:00,68.6,65.5,29.87,North,32767,0.0,0.0,90,0.00,,,0.00,Wunderground v.1.13,2013-09-08 09:15:00,
2013-09-08 05:20:00,68.4,65.0,29.87,North,32767,0.0,0.0,89,0.00,,,0.00,Wunderground v.1.13,2013-09-08 09:20:00,
2013-09-08 05:25:00,68.4,65.4,29.87,North,32767,0.0,0.0,90,0.00,,,0.00,Wunderground v.1.13,2013-09-08 09:25:00,
2013-09-08 05:30:00,68.4,65.4,29.86,North,32767,0.0,0.0,90,0.00,,,0.00,Wunderground v.1.13,2013-09-08 09:30:00,
2013-09-08 05:35:00,68.4,65.4,29.86,North,32767,0.0,0.0,90,0.00,,,0.00,Wunderground v.1.13,2013-09-08 09:35:00,
2013-09-08 05:40:00,68.4,65.4,29.86,North,32767,0.0,0.0,90,0.00,,,0.00,Wunderground v.1.13,2013-09-08 09:40:00,
2013-09-08 05:45:00,68.4,65.4,29.86,North,32767,0.0,0.0,90,0.00,,,0.00,Wunderground v.1.13,2013-09-08 09:45:00,
2013-09-08 05:50:00,68.4,65.4,29.86,North,32767,0.0,0.0,90,0.00,,,0.00,Wunderground v.1.13,2013-09-08 09:50:00,
2013-09-08 05:55:00,68.6,65.5,29.86,North,32767,0.0,0.0,90,0.00,,,0.00,Wunderground v.1.13,2013-09-08 09:55:00,
2013-09-08 06:00:00,68.6,65.5,29.86,North,32767,0.0,0.0,90,0.00,,,0.00,Wunderground v.1.13,2013-09-08 10:00:00,
2013-09-08 06:05:00,68.6,65.5,29.86,North,32767,0.0,0.0,90,0.00,,,0.00,Wunderground v.1.13,2013-09-08 10:05:00,
2013-09-08 06:10:00,68.8,65.7,29.86,North,32767,0.0,0.0,90,0.00,,,0.00,Wunderground v.1.13,2013-09-08 10:10:00,
2013-09-08 06:15:00,68.8,65.7,29.87,North,32767,0.0,0.0,90,0.00,,,0.00,Wunderground v.1.13,2013-09-08 10:15:00,
2013-09-08 06:21:00,68.8,65.7,29.87,North,32767,0.0,0.0,90,0.00,,,0.00,Wunderground v.1.13,2013-09-08 10:21:00,
2013-09-08 06:26:00,68.8,65.7,29.87,North,32767,0.0,0.0,90,0.00,,,0.00,Wunderground v.1.13,2013-09-08 10:26:00,
2013-09-08 06:31:00,68.6,65.5,29.87,North,32767,0.0,0.0,90,0.00,,,0.00,Wunderground v.1.13,2013-09-08 10:31:00,
2013-09-08 06:35:00,68.6,65.5,29.87,North,-999,0.0,0.0,90,0.00,,,-99.99,WeatherLink 6.0.2,2013-09-08 10:35:00,
2013-09-08 06:36:00,68.6,65.5,29.87,North,32767,0.0,0.0,90,0.00,,,0.00,Wunderground v.1.13,2013-09-08 10:36:00,
2013-09-08 06:40:00,68.6,65.5,29.87,North,-999,0.0,0.0,90,0.00,,,-99.99,WeatherLink 6.0.2,2013-09-08 10:40:00,
2013-09-08 06:41:00,68.6,65.5,29.87,North,32767,0.0,0.0,90,0.00,,,0.00,Wunderground v.1.13,2013-09-08 10:41:00,
2013-09-08 06:45:00,68.4,65.4,29.88,North,-999,0.0,0.0,90,0.00,,,-99.99,WeatherLink 6.0.2,2013-09-08 10:45:00,
2013-09-08 06:46:00,68.4,65.4,29.88,North,32767,0.0,0.0,90,0.00,,,0.00,Wunderground v.1.13,2013-09-08 10:46:00,
2013-09-08 06:50:00,68.4,65.7,29.88,North,-999,0.0,0.0,91,0.00,,,-99.99,WeatherLink 6.0.2,2013-09-08 10:50:00,
2013-09-08 06:51:00,68.4,65.7,29.88,North,32767,0.0,0.0,91,0.00,,,0.00,Wunderground v.1.13,2013-09-08 10:51:00,
2013-09-08 06:55:00,68.6,65.9,29.88,North,-999,0.0,0.0,91,0.00,,,-99.99,WeatherLink 6.0.2,2013-09-08 10:55:00,
2013-09-08 06:56:00,68.6,65.9,29.88,North,32767,0.0,0.0,91,0.00,,,0.00,Wunderground v.1.13,2013-09-08 10:56:00,
2013-09-08 07:00:00,68.6,65.9,29.88,North,-999,0.0,0.0,91,0.00,,,-99.99,WeatherLink 6.0.2,2013-09-08 11:00:00,
2013-09-08 07:01:00,68.8,66.1,29.88,North,32767,0.0,0.0,91,0.00,,,0.00,Wunderground v.1.13,2013-09-08 11:01:00,
2013-09-08 07:05:00,68.9,66.2,29.88,North,-999,0.0,0.0,91,0.00,,,-99.99,WeatherLink 6.0.2,2013-09-08 11:05:00,
2013-09-08 07:06:00,68.9,66.2,29.88,North,32767,0.0,0.0,91,0.00,,,0.00,Wunderground v.1.13,2013-09-08 11:06:00,
2013-09-08 07:11:00,69.1,66.4,29.88,North,32767,0.0,0.0,91,0.00,,,0.00,Wunderground v.1.13,2013-09-08 11:11:00,
2013-09-08 07:17:00,69.3,66.6,29.88,North,32767,0.0,0.0,91,0.00,,,0.00,Wunderground v.1.13,2013-09-08 11:17:00,
2013-09-08 07:22:00,69.4,66.7,29.88,North,32767,0.0,0.0,91,0.00,,,0.00,Wunderground v.1.13,2013-09-08 11:22:00,
2013-09-08 07:27:00,69.8,67.4,29.88,North,32767,0.0,0.0,92,0.00,,,0.00,Wunderground v.1.13,2013-09-08 11:27:00,
2013-09-08 07:32:00,69.9,67.5,29.88,North,32767,0.0,0.0,92,0.00,,,0.00,Wunderground v.1.13,2013-09-08 11:32:00,
2013-09-08 07:37:00,70.3,67.9,29.88,North,32767,0.0,0.0,92,0.00,,,0.00,Wunderground v.1.13,2013-09-08 11:37:00,
2013-09-08 07:42:00,70.4,68.0,29.88,North,32767,0.0,0.0,92,0.00,,,0.00,Wunderground v.1.13,2013-09-08 11:42:00,
2013-09-08 07:47:00,70.8,68.4,29.88,North,32767,0.0,0.0,92,0.00,,,0.00,Wunderground v.1.13,2013-09-08 11:47:00,
2013-09-08 07:52:00,70.9,68.5,29.88,North,32767,0.0,0.0,92,0.00,,,0.00,Wunderground v.1.13,2013-09-08 11:52:00,
2013-09-08 07:57:00,71.1,68.7,29.88,North,32767,0.0,0.0,92,0.00,,,0.00,Wunderground v.1.13,2013-09-08 11:57:00,
2013-09-08 08:02:00,71.5,69.1,29.88,North,32767,0.0,0.0,92,0.00,,,0.00,Wunderground v.1.13,2013-09-08 12:02:00,
2013-09-08 08:07:00,71.8,69.3,29.88,North,32767,0.0,0.0,92,0.00,,,0.00,Wunderground v.1.13,2013-09-08 12:07:00,
2013-09-08 08:12:00,72.1,69.6,29.88,North,32767,0.0,0.0,92,0.00,,,0.00,Wunderground v.1.13,2013-09-08 12:12:00,
2013-09-08 08:17:00,72.5,70.0,29.89,North,32767,0.0,0.0,92,0.00,,,0.00,Wunderground v.1.13,2013-09-08 12:17:00,
2013-09-08 08:22:00,72.7,70.2,29.89,North,32767,0.0,0.0,92,0.00,,,0.00,Wunderground v.1.13,2013-09-08 12:22:00,
2013-09-08 08:27:00,73.0,70.5,29.89,North,32767,0.0,0.0,92,0.00,,,0.00,Wunderground v.1.13,2013-09-08 12:27:00,
2013-09-08 08:32:00,73.5,71.0,29.90,North,32767,0.0,0.0,92,0.00,,,0.00,Wunderground v.1.13,2013-09-08 12:32:00,
2013-09-08 08:37:00,74.7,72.2,29.90,North,32767,0.0,0.0,92,0.00,,,0.00,Wunderground v.1.13,2013-09-08 12:37:00,
2013-09-08 08:42:00,74.9,72.4,29.90,North,32767,0.0,0.0,92,0.00,,,0.00,Wunderground v.1.13,2013-09-08 12:42:00,
2013-09-08 08:47:00,75.1,72.6,29.90,North,32767,0.0,0.0,92,0.00,,,0.00,Wunderground v.1.13,2013-09-08 12:47:00,
2013-09-08 08:52:00,75.3,72.8,29.90,North,32767,0.0,0.0,92,0.00,,,0.00,Wunderground v.1.13,2013-09-08 12:52:00,
2013-09-08 08:57:00,75.3,72.5,29.90,North,32767,0.0,0.0,91,0.00,,,0.00,Wunderground v.1.13,2013-09-08 12:57:00,
2013-09-08 09:02:00,75.6,72.8,29.90,North,32767,0.0,0.0,91,0.00,,,0.00,Wunderground v.1.13,2013-09-08 13:02:00,
2013-09-08 09:07:00,76.0,73.2,29.90,North,32767,0.0,0.0,91,0.00,,,0.00,Wunderground v.1.13,2013-09-08 13:07:00,
2013-09-08 09:13:00,76.1,73.0,29.90,North,32767,0.0,0.0,90,0.00,,,0.00,Wunderground v.1.13,2013-09-08 13:13:00,
2013-09-08 09:18:00,76.5,73.3,29.90,North,32767,0.0,0.0,90,0.00,,,0.00,Wunderground v.1.13,2013-09-08 13:18:00,
2013-09-08 09:23:00,76.7,73.5,29.90,North,32767,0.0,0.0,90,0.00,,,0.00,Wunderground v.1.13,2013-09-08 13:23:00,
2013-09-08 09:28:00,77.0,73.5,29.90,North,32767,0.0,0.0,89,0.00,,,0.00,Wunderground v.1.13,2013-09-08 13:28:00,
2013-09-08 09:30:00,77.6,74.1,29.90,North,-999,0.0,0.0,89,0.00,,,-99.99,WeatherLink 6.0.2,2013-09-08 13:30:00,
2013-09-08 09:33:00,77.7,73.9,29.90,North,32767,0.0,0.0,88,0.00,,,0.00,Wunderground v.1.13,2013-09-08 13:33:00,
2013-09-08 09:35:00,78.1,74.3,29.90,North,-999,0.0,0.0,88,0.00,,,-99.99,WeatherLink 6.0.2,2013-09-08 13:35:00,
2013-09-08 09:38:00,78.3,74.1,29.90,North,32767,0.0,0.0,87,0.00,,,0.00,Wunderground v.1.13,2013-09-08 13:38:00,
2013-09-08 09:40:00,78.5,74.3,29.90,North,-999,0.0,0.0,87,0.00,,,-99.99,WeatherLink 6.0.2,2013-09-08 13:40:00,
2013-09-08 09:43:00,78.6,74.1,29.90,North,32767,0.0,0.0,86,0.00,,,0.00,Wunderground v.1.13,2013-09-08 13:43:00,
2013-09-08 09:45:00,79.2,74.3,29.90,North,-999,0.0,0.0,85,0.00,,,-99.99,WeatherLink 6.0.2,2013-09-08 13:45:00,
2013-09-08 09:48:00,79.4,74.5,29.90,North,32767,0.0,0.0,85,0.00,,,0.00,Wunderground v.1.13,2013-09-08 13:48:00,
2013-09-08 09:53:00,79.6,74.0,29.90,North,32767,0.0,0.0,83,0.00,,,0.00,Wunderground v.1.13,2013-09-08 13:53:00,
2013-09-08 09:58:00,80.1,74.1,29.90,North,32767,0.0,0.0,82,0.00,,,0.00,Wunderground v.1.13,2013-09-08 13:58:00,
2013-09-08 10:03:00,80.9,74.1,29.90,North,32767,0.0,0.0,80,0.00,,,0.00,Wunderground v.1.13,2013-09-08 14:03:00,
2013-09-08 10:08:00,81.1,73.6,29.90,North,32767,0.0,0.0,78,0.00,,,0.00,Wunderground v.1.13,2013-09-08 14:08:00,
2013-09-08 10:13:00,81.6,73.7,29.90,North,32767,0.0,0.0,77,0.00,,,0.00,Wunderground v.1.13,2013-09-08 14:13:00,
2013-09-08 10:18:00,82.0,73.3,29.90,North,32767,0.0,0.0,75,0.00,,,0.00,Wunderground v.1.13,2013-09-08 14:18:00,
2013-09-08 10:20:00,82.0,73.7,29.90,North,-999,0.0,0.0,76,0.00,,,-99.99,WeatherLink 6.0.2,2013-09-08 14:20:00,
2013-09-08 10:23:00,82.0,72.9,29.90,North,32767,0.0,0.0,74,0.00,,,0.00,Wunderground v.1.13,2013-09-08 14:23:00,
2013-09-08 10:28:00,82.4,73.3,29.90,North,32767,0.0,0.0,74,0.00,,,0.00,Wunderground v.1.13,2013-09-08 14:28:00,
2013-09-08 10:33:00,82.8,73.3,29.91,North,32767,0.0,0.0,73,0.00,,,0.00,Wunderground v.1.13,2013-09-08 14:33:00,
2013-09-08 10:38:00,83.0,72.6,29.91,North,32767,0.0,0.0,71,0.00,,,0.00,Wunderground v.1.13,2013-09-08 14:38:00,
2013-09-08 10:43:00,83.2,72.8,29.91,North,32767,0.0,0.0,71,0.00,,,0.00,Wunderground v.1.13,2013-09-08 14:43:00,
2013-09-08 10:48:00,83.6,72.8,29.91,North,32767,0.0,0.0,70,0.00,,,0.00,Wunderground v.1.13,2013-09-08 14:48:00,
2013-09-08 10:53:00,84.3,73.0,29.91,North,32767,0.0,0.0,69,0.00,,,0.00,Wunderground v.1.13,2013-09-08 14:53:00,
2013-09-08 10:55:00,84.5,72.3,29.91,North,-999,0.0,0.0,67,0.00,,,-99.99,WeatherLink 6.0.2,2013-09-08 14:55:00,
2013-09-08 10:58:00,84.9,72.7,29.91,North,32767,0.0,0.0,67,0.00,,,0.00,Wunderground v.1.13,2013-09-08 14:58:00,
2013-09-08 11:00:00,84.9,72.7,29.91,North,-999,0.0,0.0,67,0.00,,,-99.99,WeatherLink 6.0.2,2013-09-08 15:00:00,
2013-09-08 11:03:00,84.9,72.7,29.91,North,32767,0.0,0.0,67,0.00,,,0.00,Wunderground v.1.13,2013-09-08 15:03:00,
2013-09-08 11:05:00,85.1,72.5,29.91,North,-999,0.0,0.0,66,0.00,,,-99.99,WeatherLink 6.0.2,2013-09-08 15:05:00,
2013-09-08 11:08:00,85.1,72.5,29.91,North,32767,0.0,0.0,66,0.00,,,0.00,Wunderground v.1.13,2013-09-08 15:08:00,
2013-09-08 11:10:00,85.3,72.2,29.91,North,-999,0.0,0.0,65,0.00,,,-99.99,WeatherLink 6.0.2,2013-09-08 15:10:00,
2013-09-08 11:13:00,85.7,72.1,29.91,North,32767,0.0,0.0,64,0.00,,,0.00,Wunderground v.1.13,2013-09-08 15:13:00,
2013-09-08 11:18:00,85.5,71.5,29.90,North,32767,0.0,0.0,63,0.00,,,0.00,Wunderground v.1.13,2013-09-08 15:18:00,
2013-09-08 11:23:00,85.5,71.0,29.90,North,-999,0.0,0.0,62,0.00,,,-99.99,WeatherLink 6.0.2,2013-09-08 15:23:00,
2013-09-08 11:28:00,85.9,71.4,29.90,North,-999,0.0,0.0,62,0.00,,,-99.99,WeatherLink 6.0.2,2013-09-08 15:28:00,
2013-09-08 11:33:00,85.3,71.3,29.90,North,32767,0.0,0.0,63,0.00,,,0.00,Wunderground v.1.13,2013-09-08 15:33:00,
2013-09-08 11:38:00,85.5,70.5,29.90,North,-999,0.0,0.0,61,0.00,,,-99.99,WeatherLink 6.0.2,2013-09-08 15:38:00,
2013-09-08 11:43:00,85.7,70.7,29.90,North,-999,0.0,0.0,61,0.00,,,-99.99,WeatherLink 6.0.2,2013-09-08 15:43:00,
2013-09-08 11:48:00,86.1,71.1,29.90,North,-999,0.0,0.0,61,0.00,,,-99.99,WeatherLink 6.0.2,2013-09-08 15:48:00,
2013-09-08 11:53:00,86.1,71.1,29.90,North,32767,0.0,0.0,61,0.00,,,0.00,Wunderground v.1.13,2013-09-08 15:53:00,
2013-09-08 11:58:00,85.5,70.5,29.90,North,32767,0.0,0.0,61,0.00,,,0.00,Wunderground v.1.13,2013-09-08 15:58:00,
2013-09-08 12:04:00,85.3,69.8,29.90,North,32767,0.0,0.0,60,0.00,,,0.00,Wunderground v.1.13,2013-09-08 16:04:00,
2013-09-08 12:09:00,85.1,69.7,29.90,North,-999,0.0,0.0,60,0.00,,,-99.99,WeatherLink 6.0.2,2013-09-08 16:09:00,
2013-09-08 12:14:00,85.7,71.2,29.90,North,-999,0.0,0.0,62,0.00,,,-99.99,WeatherLink 6.0.2,2013-09-08 16:14:00,
2013-09-08 12:19:00,86.3,69.3,29.89,North,-999,0.0,0.0,57,0.00,,,-99.99,WeatherLink 6.0.2,2013-09-08 16:19:00,
2013-09-08 12:24:00,86.7,71.6,29.89,North,-999,0.0,0.0,61,0.00,,,-99.99,WeatherLink 6.0.2,2013-09-08 16:24:00,
2013-09-08 12:29:00,85.7,70.2,29.89,North,-999,0.0,0.0,60,0.00,,,-99.99,WeatherLink 6.0.2,2013-09-08 16:29:00,
2013-09-08 12:30:00,85.7,70.7,29.89,North,-999,0.0,0.0,61,0.00,,,-99.99,WeatherLink 6.0.2,2013-09-08 16:30:00,
2013-09-08 12:34:00,86.7,71.6,29.89,North,32767,0.0,0.0,61,0.00,,,0.00,Wunderground v.1.13,2013-09-08 16:34:00,
2013-09-08 12:35:00,86.7,71.2,29.89,North,-999,0.0,0.0,60,0.00,,,-99.99,WeatherLink 6.0.2,2013-09-08 16:35:00,
2013-09-08 12:39:00,85.9,69.9,29.89,North,32767,0.0,0.0,59,0.00,,,0.00,Wunderground v.1.13,2013-09-08 16:39:00,
2013-09-08 12:40:00,85.7,69.7,29.89,North,-999,0.0,0.0,59,0.00,,,-99.99,WeatherLink 6.0.2,2013-09-08 16:40:00,
2013-09-08 12:44:00,86.3,71.7,29.89,North,32767,0.0,0.0,62,0.00,,,0.00,Wunderground v.1.13,2013-09-08 16:44:00,
2013-09-08 12:45:00,85.9,70.4,29.89,North,-999,0.0,0.0,60,0.00,,,-99.99,WeatherLink 6.0.2,2013-09-08 16:45:00,
2013-09-08 12:49:00,86.1,70.1,29.89,North,32767,0.0,0.0,59,0.00,,,0.00,Wunderground v.1.13,2013-09-08 16:49:00,
2013-09-08 12:50:00,85.9,69.9,29.89,North,-999,0.0,0.0,59,0.00,,,-99.99,WeatherLink 6.0.2,2013-09-08 16:50:00,
2013-09-08 12:55:00,87.0,71.4,29.89,North,32767,0.0,0.0,60,0.00,,,0.00,Wunderground v.1.13,2013-09-08 16:55:00,
2013-09-08 13:00:00,87.6,70.5,29.88,North,32767,0.0,0.0,57,0.00,,,0.00,Wunderground v.1.13,2013-09-08 17:00:00,
2013-09-08 13:05:00,87.6,70.0,29.88,North,32767,0.0,0.0,56,0.00,,,0.00,Wunderground v.1.13,2013-09-08 17:05:00,
2013-09-08 13:10:00,87.8,70.1,29.88,North,32767,0.0,0.0,56,0.00,,,0.00,Wunderground v.1.13,2013-09-08 17:10:00,
2013-09-08 13:15:00,88.4,69.6,29.88,North,32767,0.0,0.0,54,0.00,,,0.00,Wunderground v.1.13,2013-09-08 17:15:00,
2013-09-08 13:20:00,87.4,71.8,29.88,North,32767,0.0,0.0,60,0.00,,,0.00,Wunderground v.1.13,2013-09-08 17:20:00,
2013-09-08 13:25:00,87.6,70.0,29.88,North,32767,0.0,0.0,56,0.00,,,0.00,Wunderground v.1.13,2013-09-08 17:25:00,
2013-09-08 13:30:00,88.8,71.1,29.87,North,32767,0.0,0.0,56,0.00,,,0.00,Wunderground v.1.13,2013-09-08 17:30:00,
2013-09-08 13:35:00,89.5,72.3,29.87,North,32767,0.0,0.0,57,0.00,,,0.00,Wunderground v.1.13,2013-09-08 17:35:00,
2013-09-08 13:40:00,89.0,70.2,29.87,North,32767,0.0,0.0,54,0.00,,,0.00,Wunderground v.1.13,2013-09-08 17:40:00,
2013-09-08 13:45:00,89.0,69.6,29.87,North,32767,0.0,0.0,53,0.00,,,0.00,Wunderground v.1.13,2013-09-08 17:45:00,
2013-09-08 13:50:00,89.0,69.6,29.87,North,32767,0.0,0.0,53,0.00,,,0.00,Wunderground v.1.13,2013-09-08 17:50:00,
2013-09-08 13:55:00,89.0,69.6,29.87,North,32767,0.0,0.0,53,0.00,,,0.00,Wunderground v.1.13,2013-09-08 17:55:00,
2013-09-08 14:00:00,89.0,69.6,29.86,North,32767,0.0,0.0,53,0.00,,,0.00,Wunderground v.1.13,2013-09-08 18:00:00,
2013-09-08 14:05:00,88.8,70.0,29.86,North,32767,0.0,0.0,54,0.00,,,0.00,Wunderground v.1.13,2013-09-08 18:05:00,
2013-09-08 14:10:00,89.9,69.9,29.86,North,32767,0.0,0.0,52,0.00,,,0.00,Wunderground v.1.13,2013-09-08 18:10:00,
2013-09-08 14:16:00,89.9,71.6,29.86,North,32767,0.0,0.0,55,0.00,,,0.00,Wunderground v.1.13,2013-09-08 18:16:00,
2013-09-08 14:21:00,89.0,69.6,29.86,North,32767,0.0,0.0,53,0.00,,,0.00,Wunderground v.1.13,2013-09-08 18:21:00,
2013-09-08 14:26:00,87.8,70.7,29.86,North,32767,0.0,0.0,57,0.00,,,0.00,Wunderground v.1.13,2013-09-08 18:26:00,
2013-09-08 14:31:00,89.0,71.3,29.85,North,32767,0.0,0.0,56,0.00,,,0.00,Wunderground v.1.13,2013-09-08 18:31:00,
2013-09-08 14:36:00,89.5,70.1,29.85,North,32767,0.0,0.0,53,0.00,,,0.00,Wunderground v.1.13,2013-09-08 18:36:00,
2013-09-08 14:41:00,90.1,71.2,29.85,North,32767,0.0,0.0,54,0.00,,,0.00,Wunderground v.1.13,2013-09-08 18:41:00,
2013-09-08 14:46:00,89.5,70.1,29.84,North,32767,0.0,0.0,53,0.00,,,0.00,Wunderground v.1.13,2013-09-08 18:46:00,
2013-09-08 14:51:00,88.0,68.7,29.84,North,32767,0.0,0.0,53,0.00,,,0.00,Wunderground v.1.13,2013-09-08 18:51:00,
2013-09-08 14:56:00,87.2,68.0,29.84,North,32767,0.0,0.0,53,0.00,,,0.00,Wunderground v.1.13,2013-09-08 18:56:00,
2013-09-08 15:00:00,86.7,67.5,29.84,North,-999,0.0,0.0,53,0.00,,,-99.99,WeatherLink 6.0.2,2013-09-08 19:00:00,
2013-09-08 15:01:00,86.7,68.6,29.84,North,32767,0.0,0.0,55,0.00,,,0.00,Wunderground v.1.13,2013-09-08 19:01:00,
2013-09-08 15:05:00,88.4,70.7,29.84,North,-999,0.0,0.0,56,0.00,,,-99.99,WeatherLink 6.0.2,2013-09-08 19:05:00,
2013-09-08 15:06:00,88.6,69.3,29.84,North,32767,0.0,0.0,53,0.00,,,0.00,Wunderground v.1.13,2013-09-08 19:06:00,
2013-09-08 15:10:00,89.3,68.8,29.84,North,-999,0.0,0.0,51,0.00,,,-99.99,WeatherLink 6.0.2,2013-09-08 19:10:00,
2013-09-08 15:11:00,89.5,69.5,29.84,North,32767,0.0,0.0,52,0.00,,,0.00,Wunderground v.1.13,2013-09-08 19:11:00,
2013-09-08 15:15:00,90.1,68.4,29.83,North,-999,0.0,0.0,49,0.00,,,-99.99,WeatherLink 6.0.2,2013-09-08 19:15:00,
2013-09-08 15:16:00,90.1,69.0,29.83,North,32767,0.0,0.0,50,0.00,,,0.00,Wunderground v.1.13,2013-09-08 19:16:00,
2013-09-08 15:21:00,90.3,69.1,29.83,North,32767,0.0,0.0,50,0.00,,,0.00,Wunderground v.1.13,2013-09-08 19:21:00,
2013-09-08 15:27:00,90.1,67.2,29.83,North,32767,0.0,0.0,47,0.00,,,0.00,Wunderground v.1.13,2013-09-08 19:27:00,
2013-09-08 15:32:00,89.9,68.8,29.83,North,32767,0.0,0.0,50,0.00,,,0.00,Wunderground v.1.13,2013-09-08 19:32:00,
2013-09-08 15:35:00,90.1,69.0,29.83,North,-999,0.0,0.0,50,0.00,,,-99.99,WeatherLink 6.0.2,2013-09-08 19:35:00,
2013-09-08 15:37:00,90.1,69.0,29.83,North,32767,0.0,0.0,50,0.00,,,0.00,Wunderground v.1.13,2013-09-08 19:37:00,
2013-09-08 15:40:00,89.5,66.6,29.83,North,-999,0.0,0.0,47,0.00,,,-99.99,WeatherLink 6.0.2,2013-09-08 19:40:00,
2013-09-08 15:41:00,89.3,66.4,29.83,North,32767,0.0,0.0,47,0.00,,,0.00,Wunderground v.1.13,2013-09-08 19:41:00,
2013-09-08 15:45:00,88.8,66.6,29.83,North,-999,0.0,0.0,48,0.00,,,-99.99,WeatherLink 6.0.2,2013-09-08 19:45:00,
2013-09-08 15:47:00,89.0,65.5,29.82,North,32767,0.0,0.0,46,0.00,,,0.00,Wunderground v.1.13,2013-09-08 19:47:00,
2013-09-08 15:52:00,90.1,66.5,29.82,North,32767,0.0,0.0,46,0.00,,,0.00,Wunderground v.1.13,2013-09-08 19:52:00,
2013-09-08 15:57:00,90.3,66.1,29.82,North,32767,0.0,0.0,45,0.00,,,0.00,Wunderground v.1.13,2013-09-08 19:57:00,
2013-09-08 16:02:00,90.3,69.1,29.82,North,32767,0.0,0.0,50,0.00,,,0.00,Wunderground v.1.13,2013-09-08 20:02:00,
2013-09-08 16:07:00,90.7,68.9,29.82,North,32767,0.0,0.0,49,0.00,,,0.00,Wunderground v.1.13,2013-09-08 20:07:00,
2013-09-08 16:12:00,90.5,66.9,29.82,North,32767,0.0,0.0,46,0.00,,,0.00,Wunderground v.1.13,2013-09-08 20:12:00,
2013-09-08 16:17:00,88.8,66.0,29.82,North,32767,0.0,0.0,47,0.00,,,0.00,Wunderground v.1.13,2013-09-08 20:17:00,
2013-09-08 16:22:00,89.0,67.9,29.82,North,32767,0.0,0.0,50,0.00,,,0.00,Wunderground v.1.13,2013-09-08 20:22:00,
2013-09-08 16:25:00,89.0,66.8,29.82,North,-999,0.0,0.0,48,0.00,,,-99.99,WeatherLink 6.0.2,2013-09-08 20:25:00,
2013-09-08 16:28:00,88.8,67.2,29.82,North,32767,0.0,0.0,49,0.00,,,0.00,Wunderground v.1.13,2013-09-08 20:28:00,
2013-09-08 16:30:00,89.3,67.6,29.82,North,-999,0.0,0.0,49,0.00,,,-99.99,WeatherLink 6.0.2,2013-09-08 20:30:00,
2013-09-08 16:33:00,89.7,66.8,29.82,North,32767,0.0,0.0,47,0.00,,,0.00,Wunderground v.1.13,2013-09-08 20:33:00,
2013-09-08 16:35:00,90.1,66.5,29.82,North,-999,0.0,0.0,46,0.00,,,-99.99,WeatherLink 6.0.2,2013-09-08 20:35:00,
2013-09-08 16:38:00,90.3,66.7,29.82,North,32767,0.0,0.0,46,0.00,,,0.00,Wunderground v.1.13,2013-09-08 20:38:00,
2013-09-08 16:40:00,90.3,66.1,29.82,North,-999,0.0,0.0,45,0.00,,,-99.99,WeatherLink 6.0.2,2013-09-08 20:40:00,
2013-09-08 16:43:00,90.5,66.3,29.82,North,32767,0.0,0.0,45,0.00,,,0.00,Wunderground v.1.13,2013-09-08 20:43:00,
2013-09-08 16:48:00,91.0,66.7,29.82,North,32767,0.0,0.0,45,0.00,,,0.00,Wunderground v.1.13,2013-09-08 20:48:00,
2013-09-08 16:53:00,91.0,67.3,29.82,North,32767,0.0,0.0,46,0.00,,,0.00,Wunderground v.1.13,2013-09-08 20:53:00,
2013-09-08 16:55:00,91.4,68.3,29.82,North,-999,0.0,0.0,47,0.00,,,-99.99,WeatherLink 6.0.2,2013-09-08 20:55:00,
2013-09-08 16:58:00,91.2,67.5,29.82,North,32767,0.0,0.0,46,0.00,,,0.00,Wunderground v.1.13,2013-09-08 20:58:00,
2013-09-08 17:00:00,91.2,66.9,29.82,North,-999,0.0,0.0,45,0.00,,,-99.99,WeatherLink 6.0.2,2013-09-08 21:00:00,
2013-09-08 17:03:00,91.0,67.3,29.82,North,32767,0.0,0.0,46,0.00,,,0.00,Wunderground v.1.13,2013-09-08 21:03:00,
2013-09-08 17:05:00,91.0,67.3,29.82,North,-999,0.0,0.0,46,0.00,,,-99.99,WeatherLink 6.0.2,2013-09-08 21:05:00,
2013-09-08 17:08:00,90.7,65.8,29.82,North,32767,0.0,0.0,44,0.00,,,0.00,Wunderground v.1.13,2013-09-08 21:08:00,
2013-09-08 17:13:00,90.3,65.4,29.82,North,32767,0.0,0.0,44,0.00,,,0.00,Wunderground v.1.13,2013-09-08 21:13:00,
2013-09-08 17:18:00,90.5,64.3,29.82,North,-999,0.0,0.0,42,0.00,,,-99.99,WeatherLink 6.0.2,2013-09-08 21:18:00,
2013-09-08 17:23:00,90.1,66.5,29.81,North,-999,0.0,0.0,46,0.00,,,-99.99,WeatherLink 6.0.2,2013-09-08 21:23:00,
2013-09-08 17:28:00,89.9,68.2,29.81,North,-999,0.0,0.0,49,0.00,,,-99.99,WeatherLink 6.0.2,2013-09-08 21:28:00,
2013-09-08 17:33:00,89.9,67.6,29.80,North,-999,0.0,0.0,48,0.00,,,-99.99,WeatherLink 6.0.2,2013-09-08 21:33:00,
2013-09-08 17:38:00,89.7,65.5,29.80,North,-999,0.0,0.0,45,0.00,,,-99.99,WeatherLink 6.0.2,2013-09-08 21:38:00,
2013-09-08 17:44:00,89.9,67.0,29.80,North,-999,0.0,0.0,47,0.00,,,-99.99,WeatherLink 6.0.2,2013-09-08 21:44:00,
2013-09-08 17:49:00,89.5,66.0,29.80,North,-999,0.0,0.0,46,0.00,,,-99.99,WeatherLink 6.0.2,2013-09-08 21:49:00,
2013-09-08 17:54:00,89.5,66.0,29.80,North,-999,0.0,0.0,46,0.00,,,-99.99,WeatherLink 6.0.2,2013-09-08 21:54:00,
2013-09-08 17:55:00,89.7,66.2,29.80,North,-999,0.0,0.0,46,0.00,,,-99.99,WeatherLink 6.0.2,2013-09-08 21:55:00,
2013-09-08 17:59:00,89.5,66.0,29.80,North,32767,0.0,0.0,46,0.00,,,0.00,Wunderground v.1.13,2013-09-08 21:59:00,
2013-09-08 18:00:00,89.5,66.0,29.80,North,-999,0.0,0.0,46,0.00,,,-99.99,WeatherLink 6.0.2,2013-09-08 22:00:00,
2013-09-08 18:04:00,89.3,65.8,29.80,North,32767,0.0,0.0,46,0.00,,,0.00,Wunderground v.1.13,2013-09-08 22:04:00,
2013-09-08 18:09:00,89.3,66.4,29.80,North,32767,0.0,0.0,47,0.00,,,0.00,Wunderground v.1.13,2013-09-08 22:09:00,
2013-09-08 18:14:00,89.0,67.9,29.80,North,32767,0.0,0.0,50,0.00,,,0.00,Wunderground v.1.13,2013-09-08 22:14:00,
2013-09-08 18:19:00,88.8,66.6,29.81,North,32767,0.0,0.0,48,0.00,,,0.00,Wunderground v.1.13,2013-09-08 22:19:00,
2013-09-08 18:24:00,88.6,68.2,29.81,North,32767,0.0,0.0,51,0.00,,,0.00,Wunderground v.1.13,2013-09-08 22:24:00,
2013-09-08 18:29:00,87.6,70.0,29.81,North,32767,0.0,0.0,56,0.00,,,0.00,Wunderground v.1.13,2013-09-08 22:29:00,
2013-09-08 18:34:00,87.2,70.1,29.82,North,32767,0.0,0.0,57,0.00,,,0.00,Wunderground v.1.13,2013-09-08 22:34:00,
2013-09-08 18:39:00,87.0,70.4,29.82,North,32767,0.0,0.0,58,0.00,,,0.00,Wunderground v.1.13,2013-09-08 22:39:00,
2013-09-08 18:40:00,86.7,70.7,29.82,North,-999,0.0,0.0,59,0.00,,,-99.99,WeatherLink 6.0.2,2013-09-08 22:40:00,
2013-09-08 18:44:00,86.3,70.8,29.82,North,32767,0.0,0.0,60,0.00,,,0.00,Wunderground v.1.13,2013-09-08 22:44:00,
2013-09-08 18:49:00,86.1,70.6,29.82,North,32767,0.0,0.0,60,0.00,,,0.00,Wunderground v.1.13,2013-09-08 22:49:00,
2013-09-08 18:54:00,86.1,70.6,29.82,North,32767,0.0,0.0,60,0.00,,,0.00,Wunderground v.1.13,2013-09-08 22:54:00,
2013-09-08 18:55:00,86.1,70.6,29.82,North,-999,0.0,0.0,60,0.00,,,-99.99,WeatherLink 6.0.2,2013-09-08 22:55:00,
2013-09-08 18:59:00,86.1,70.6,29.82,North,32767,0.0,0.0,60,0.00,,,0.00,Wunderground v.1.13,2013-09-08 22:59:00,
2013-09-08 19:00:00,86.1,70.6,29.82,North,-999,0.0,0.0,60,0.00,,,-99.99,WeatherLink 6.0.2,2013-09-08 23:00:00,
2013-09-08 19:04:00,85.9,70.4,29.82,North,32767,0.0,0.0,60,0.00,,,0.00,Wunderground v.1.13,2013-09-08 23:04:00,
2013-09-08 19:05:00,85.9,70.4,29.82,North,-999,0.0,0.0,60,0.00,,,-99.99,WeatherLink 6.0.2,2013-09-08 23:05:00,
2013-09-08 19:09:00,85.7,70.7,29.82,North,32767,0.0,0.0,61,0.00,,,0.00,Wunderground v.1.13,2013-09-08 23:09:00,
2013-09-08 19:10:00,85.7,70.7,29.82,North,-999,0.0,0.0,61,0.00,,,-99.99,WeatherLink 6.0.2,2013-09-08 23:10:00,
2013-09-08 19:14:00,85.5,70.5,29.82,North,32767,0.0,0.0,61,0.00,,,0.00,Wunderground v.1.13,2013-09-08 23:14:00,
2013-09-08 19:15:00,85.5,71.0,29.82,North,-999,0.0,0.0,62,0.00,,,-99.99,WeatherLink 6.0.2,2013-09-08 23:15:00,
2013-09-08 19:19:00,85.3,70.8,29.82,North,32767,0.0,0.0,62,0.00,,,0.00,Wunderground v.1.13,2013-09-08 23:19:00,
2013-09-08 19:20:00,85.3,70.8,29.82,North,-999,0.0,0.0,62,0.00,,,-99.99,WeatherLink 6.0.2,2013-09-08 23:20:00,
2013-09-08 19:24:00,84.9,70.9,29.82,North,32767,0.0,0.0,63,0.00,,,0.00,Wunderground v.1.13,2013-09-08 23:24:00,
2013-09-08 19:25:00,84.9,70.9,29.82,North,-999,0.0,0.0,63,0.00,,,-99.99,WeatherLink 6.0.2,2013-09-08 23:25:00,
2013-09-08 19:30:00,84.7,70.7,29.82,North,32767,0.0,0.0,63,0.00,,,0.00,Wunderground v.1.13,2013-09-08 23:30:00,
2013-09-08 19:35:00,84.3,70.8,29.82,North,32767,0.0,0.0,64,0.00,,,0.00,Wunderground v.1.13,2013-09-08 23:35:00,
2013-09-08 19:40:00,84.1,70.6,29.82,North,32767,0.0,0.0,64,0.00,,,0.00,Wunderground v.1.13,2013-09-08 23:40:00,
2013-09-08 19:45:00,83.8,70.3,29.82,North,32767,0.0,0.0,64,0.00,,,0.00,Wunderground v.1.13,2013-09-08 23:45:00,
2013-09-08 19:50:00,83.4,70.4,29.83,North,32767,0.0,0.0,65,0.00,,,0.00,Wunderground v.1.13,2013-09-08 23:50:00,
2013-09-08 19:55:00,83.2,70.2,29.83,North,32767,0.0,0.0,65,0.00,,,0.00,Wunderground v.1.13,2013-09-08 23:55:00,
2013-09-08 20:00:00,83.0,70.5,29.84,North,32767,0.0,0.0,66,0.00,,,0.00,Wunderground v.1.13,2013-09-09 00:00:00,
2013-09-08 20:05:00,82.8,70.3,29.84,North,32767,0.0,0.0,66,0.00,,,0.00,Wunderground v.1.13,2013-09-09 00:05:00,
2013-09-08 20:10:00,82.4,69.9,29.84,North,32767,0.0,0.0,66,0.00,,,0.00,Wunderground v.1.13,2013-09-09 00:10:00,
2013-09-08 20:16:00,82.2,70.1,29.85,North,32767,0.0,0.0,67,0.00,,,0.00,Wunderground v.1.13,2013-09-09 00:16:00,
2013-09-08 20:21:00,82.0,70.0,29.85,North,32767,0.0,0.0,67,0.00,,,0.00,Wunderground v.1.13,2013-09-09 00:21:00,
2013-09-08 20:26:00,81.8,69.8,29.85,North,32767,0.0,0.0,67,0.00,,,0.00,Wunderground v.1.13,2013-09-09 00:26:00,
2013-09-08 20:31:00,81.6,70.0,29.86,North,32767,0.0,0.0,68,0.00,,,0.00,Wunderground v.1.13,2013-09-09 00:31:00,
2013-09-08 20:35:00,81.6,70.0,29.86,North,-999,0.0,0.0,68,0.00,,,-99.99,WeatherLink 6.0.2,2013-09-09 00:35:00,
2013-09-08 20:36:00,81.6,70.0,29.86,North,32767,0.0,0.0,68,0.00,,,0.00,Wunderground v.1.13,2013-09-09 00:36:00,
2013-09-08 20:40:00,81.4,70.2,29.86,North,-999,0.0,0.0,69,0.00,,,-99.99,WeatherLink 6.0.2,2013-09-09 00:40:00,
2013-09-08 20:41:00,81.4,70.2,29.86,North,32767,0.0,0.0,69,0.00,,,0.00,Wunderground v.1.13,2013-09-09 00:41:00,
2013-09-08 20:45:00,81.2,70.5,29.87,North,-999,0.0,0.0,70,0.00,,,-99.99,WeatherLink 6.0.2,2013-09-09 00:45:00,
2013-09-08 20:46:00,81.2,70.5,29.87,North,32767,0.0,0.0,70,0.00,,,0.00,Wunderground v.1.13,2013-09-09 00:46:00,
2013-09-08 20:50:00,81.1,70.4,29.87,North,-999,0.0,0.0,70,0.00,,,-99.99,WeatherLink 6.0.2,2013-09-09 00:50:00,
2013-09-08 20:51:00,81.1,70.4,29.87,North,32767,0.0,0.0,70,0.00,,,0.00,Wunderground v.1.13,2013-09-09 00:51:00,
2013-09-08 20:55:00,81.1,70.8,29.87,North,-999,0.0,0.0,71,0.00,,,-99.99,WeatherLink 6.0.2,2013-09-09 00:55:00,
2013-09-08 20:56:00,81.1,70.8,29.87,North,32767,0.0,0.0,71,0.00,,,0.00,Wunderground v.1.13,2013-09-09 00:56:00,
2013-09-08 21:00:00,80.9,70.6,29.88,North,-999,0.0,0.0,71,0.00,,,-99.99,WeatherLink 6.0.2,2013-09-09 01:00:00,
2013-09-08 21:01:00,80.9,70.6,29.88,North,32767,0.0,0.0,71,0.00,,,0.00,Wunderground v.1.13,2013-09-09 01:01:00,
2013-09-08 21:05:00,80.7,70.4,29.88,North,-999,0.0,0.0,71,0.00,,,-99.99,WeatherLink 6.0.2,2013-09-09 01:05:00,
2013-09-08 21:06:00,80.7,70.4,29.88,North,32767,0.0,0.0,71,0.00,,,0.00,Wunderground v.1.13,2013-09-09 01:06:00,
2013-09-08 21:11:00,80.7,70.4,29.88,North,32767,0.0,0.0,71,0.00,,,0.00,Wunderground v.1.13,2013-09-09 01:11:00,
2013-09-08 21:16:00,80.5,70.6,29.88,North,32767,0.0,0.0,72,0.00,,,0.00,Wunderground v.1.13,2013-09-09 01:16:00,
2013-09-08 21:21:00,80.3,70.4,29.88,North,32767,0.0,0.0,72,0.00,,,0.00,Wunderground v.1.13,2013-09-09 01:21:00,
2013-09-08 21:27:00,80.3,70.9,29.88,North,32767,0.0,0.0,73,0.00,,,0.00,Wunderground v.1.13,2013-09-09 01:27:00,
2013-09-08 21:32:00,80.1,71.1,29.88,North,32767,0.0,0.0,74,0.00,,,0.00,Wunderground v.1.13,2013-09-09 01:32:00,
2013-09-08 21:37:00,79.9,70.9,29.88,North,32767,0.0,0.0,74,0.00,,,0.00,Wunderground v.1.13,2013-09-09 01:37:00,
2013-09-08 21:42:00,79.9,70.9,29.88,North,32767,0.0,0.0,74,0.00,,,0.00,Wunderground v.1.13,2013-09-09 01:42:00,
2013-09-08 21:47:00,79.8,70.8,29.89,North,32767,0.0,0.0,74,0.00,,,0.00,Wunderground v.1.13,2013-09-09 01:47:00,
2013-09-08 21:52:00,79.8,70.8,29.89,North,32767,0.0,0.0,74,0.00,,,0.00,Wunderground v.1.13,2013-09-09 01:52:00,
2013-09-08 21:57:00,79.8,70.8,29.89,North,32767,0.0,0.0,74,0.00,,,0.00,Wunderground v.1.13,2013-09-09 01:57:00,
2013-09-08 22:02:00,79.6,71.0,29.91,North,32767,0.0,0.0,75,0.00,,,0.00,Wunderground v.1.13,2013-09-09 02:02:00,
2013-09-08 22:07:00,79.6,71.0,29.91,North,32767,0.0,0.0,75,0.00,,,0.00,Wunderground v.1.13,2013-09-09 02:07:00,
2013-09-08 22:12:00,79.4,70.8,29.91,North,32767,0.0,0.0,75,0.00,,,0.00,Wunderground v.1.13,2013-09-09 02:12:00,
2013-09-08 22:17:00,79.4,70.8,29.91,North,32767,0.0,0.0,75,0.00,,,0.00,Wunderground v.1.13,2013-09-09 02:17:00,
2013-09-08 22:22:00,79.2,70.6,29.91,North,32767,0.0,0.0,75,0.00,,,0.00,Wunderground v.1.13,2013-09-09 02:22:00,
2013-09-08 22:27:00,79.0,70.8,29.91,North,32767,0.0,0.0,76,0.00,,,0.00,Wunderground v.1.13,2013-09-09 02:27:00,
2013-09-08 22:33:00,78.8,70.6,29.91,North,32767,0.0,0.0,76,0.00,,,0.00,Wunderground v.1.13,2013-09-09 02:33:00,
2013-09-08 22:38:00,78.8,70.6,29.91,North,32767,0.0,0.0,76,0.00,,,0.00,Wunderground v.1.13,2013-09-09 02:38:00,
2013-09-08 22:43:00,78.6,70.4,29.91,North,32767,0.0,0.0,76,0.00,,,0.00,Wunderground v.1.13,2013-09-09 02:43:00,
2013-09-08 22:45:00,78.5,70.3,29.91,North,-999,0.0,0.0,76,0.00,,,-99.99,WeatherLink 6.0.2,2013-09-09 02:45:00,
2013-09-08 22:47:00,78.5,70.3,29.91,North,32767,0.0,0.0,76,0.00,,,0.00,Wunderground v.1.13,2013-09-09 02:47:00,
2013-09-08 22:50:00,78.3,70.1,29.91,North,-999,0.0,0.0,76,0.00,,,-99.99,WeatherLink 6.0.2,2013-09-09 02:50:00,
2013-09-08 22:53:00,78.3,70.1,29.91,North,32767,0.0,0.0,76,0.00,,,0.00,Wunderground v.1.13,2013-09-09 02:53:00,
2013-09-08 22:55:00,78.1,69.9,29.91,North,-999,0.0,0.0,76,0.00,,,-99.99,WeatherLink 6.0.2,2013-09-09 02:55:00,
2013-09-08 22:58:00,78.1,70.3,29.91,North,32767,0.0,0.0,77,0.00,,,0.00,Wunderground v.1.13,2013-09-09 02:58:00,
2013-09-08 23:03:00,77.7,69.9,29.91,North,32767,0.0,0.0,77,0.00,,,0.00,Wunderground v.1.13,2013-09-09 03:03:00,
2013-09-08 23:08:00,77.6,70.2,29.91,North,32767,0.0,0.0,78,0.00,,,0.00,Wunderground v.1.13,2013-09-09 03:08:00,
2013-09-08 23:13:00,77.4,70.0,29.91,North,32767,0.0,0.0,78,0.00,,,0.00,Wunderground v.1.13,2013-09-09 03:13:00,
2013-09-08 23:18:00,77.0,69.6,29.91,North,32767,0.0,0.0,78,0.00,,,0.00,Wunderground v.1.13,2013-09-09 03:18:00,
2013-09-08 23:23:00,76.8,69.4,29.91,North,32767,0.0,0.0,78,0.00,,,0.00,Wunderground v.1.13,2013-09-09 03:23:00,
2013-09-08 23:28:00,76.7,69.7,29.91,North,32767,0.0,0.0,79,0.00,,,0.00,Wunderground v.1.13,2013-09-09 03:28:00,
2013-09-08 23:33:00,76.5,69.5,29.91,North,32767,0.0,0.0,79,0.00,,,0.00,Wunderground v.1.13,2013-09-09 03:33:00,
2013-09-08 23:38:00,76.3,69.7,29.91,North,32767,0.0,0.0,80,0.00,,,0.00,Wunderground v.1.13,2013-09-09 03:38:00,
2013-09-08 23:43:00,76.1,69.5,29.91,North,32767,0.0,0.0,80,0.00,,,0.00,Wunderground v.1.13,2013-09-09 03:43:00,
2013-09-08 23:48:00,76.1,69.8,29.92,North,32767,0.0,0.0,81,0.00,,,0.00,Wunderground v.1.13,2013-09-09 03:48:00,
2013-09-08 23:53:00,76.0,69.7,29.92,North,32767,0.0,0.0,81,0.00,,,0.00,Wunderground v.1.13,2013-09-09 03:53:00,
2013-09-08 23:58:00,75.8,69.6,29.92,North,32767,0.0,0.0,81,0.00,,,0.00,Wunderground v.1.13,2013-09-09 03:58:00,